Hourly Data Report for April 26, 2010

YELLOWKNIFE A
NORTHWEST TERRITORIES

62°27'46.000" N
114°26'25.000" W
205.70 m
2204100
71936
YZF

Download Data

Hourly Data (April 2010)
Hourly Data Report for April 26, 2010
TIME
LST
Temp Definition
°C
Dew Point Definition
°C
Rel Hum Definition
%
Precip. Amount Definition
mm

Wind Dir Definition
10's deg

Wind Spd Definition
km/h
Visibility Definition
km
Stn Press Definition
kPa
Hmdx Definition


Wind Chill Definition


Weather Definition


00:00 -0.8 -10.6 47     0 24.1 100.09     Clear
01:00 -2.8 -10.2 57     0 24.1 100.08     Clear
02:00 -1.6 -10.8 49     0 24.1 100.08     Clear
03:00 -3.5 -11.1 56     0 24.1 100.09     Clear
04:00 -3.9 -11.8 54     0 24.1 100.11     Mainly Clear
05:00 -5.4 -11.7 61     0 24.1 100.14     Mainly Clear
06:00 -5.0 -11.6 60     0 24.1 100.13     Mainly Clear
07:00 -3.8 -10.9 58     0 24.1 100.12     Mainly Clear
08:00 -0.7 -8.3 56     0 24.1 100.11     Mainly Clear
09:00 2.0 -8.0 47   10 4 24.1 100.08     Mainly Clear
10:00 3.1 -9.6 39   10 4 24.1 100.04     Mainly Clear
11:00 3.4 -9.5 38   10 4 24.1 100.00     Mostly Cloudy
12:00 4.1 -9.6 36     0 24.1 99.94     Mostly Cloudy
13:00 3.9 -9.6 37     0 24.1 99.91     Mostly Cloudy
14:00 4.1 -10.0 35   17 4 24.1 99.86     Mainly Clear
15:00 4.1 -9.7 36   17 9 24.1 99.80     Mainly Clear
16:00 4.3 -9.3 36   13 11 24.1 99.75     Mainly Clear
17:00 3.0 -9.9 38   13 11 24.1 99.70     Mainly Clear
18:00 3.7 -8.9 39   14 9 24.1 99.65     Clear
19:00 3.8 -9.2 38     0 24.1 99.59     Clear
20:00 3.2 -8.5 42   11 9 24.1 99.55     Clear
21:00 1.6 -8.8 46   9 9 24.1 99.52     Clear
22:00 0.4 -9.1 49   8 7 24.1 99.46     Clear
23:00 -0.6 -9.5 51   8 4 24.1 99.44   -2 Clear

Notes on Data Quality.

Legend

  • E = Estimated
  • M = Missing
  • NA = Not Available*
  • [empty] = Indicates an unobserved value
Date modified: